Stations météo

Publicité
London/Heathrow Intl, Grande-Bretagne (3772): Température de l'air & dewpoint: 17.02.2019 22:00:00 - 23.02.2019 22:00:00 (GMT)London/Heathrow Intl, Grande-Bretagne (3772): Vitesse du vent: 17.02.2019 22:00:00 - 23.02.2019 22:00:00 (GMT)London/Heathrow Intl, Grande-Bretagne (3772): Direction du vent: 17.02.2019 22:00:00 - 23.02.2019 22:00:00 (GMT)London/Heathrow Intl, Grande-Bretagne (3772): reduced air pressure: 17.02.2019 22:00:00 - 23.02.2019 22:00:00 (GMT)London/Heathrow Intl, Grande-Bretagne (3772): visibility: 17.02.2019 22:00:00 - 23.02.2019 22:00:00 (GMT)London/Heathrow Intl, Grande-Bretagne (3772): Ensoleillement: 17.02.2019 22:00:00 - 23.02.2019 22:00:00 (GMT)London/Heathrow Intl, Grande-Bretagne (3772): Quantités de précipitations: 17.02.2019 22:00:00 - 23.02.2019 22:00:00 (GMT)
Date & Time tt [°C] td [°C] ff [km/h] ff [knt] dd ppp [hPa] vv [km] sd [min] rr [mm]
23.02.2019 22:00:00 8,2 5,1 4 2 - 1034,4 9 0 0,0
23.02.2019 21:00:00 9,6 4,6 4 2 - 1034,4 9 0 0,0
23.02.2019 20:00:00 10,9 5,6 5 3 - 1034,1 10 0 0,0
23.02.2019 19:00:00 12,4 6,1 11 6 SSW 1033,7 17 0 0,0
23.02.2019 18:00:00 12,5 6,7 11 6 SSE 1033,0 10 0 0,0
23.02.2019 17:00:00 14,5 7,1 9 5 S 1032,6 10 60 0,0
23.02.2019 16:00:00 16,1 7,1 13 7 SSE 1032,5 19 60 0,0
23.02.2019 15:00:00 16,3 7,3 15 8 S 1032,5 10 60 0,0
23.02.2019 14:00:00 16,3 7,7 15 8 SSE 1032,7 10 60 0,0
23.02.2019 13:00:00 15,2 8,4 11 6 S 1033,4 10 60 0,0
23.02.2019 12:00:00 13,3 8,8 9 5 SE 1033,8 6 60 0,0
23.02.2019 11:00:00 10,3 9,7 9 5 E 1034,0 3,5 18 0,0
23.02.2019 10:00:00 8,0 8,0 5 3 SE 1034,3 1,6 0 0,0
23.02.2019 09:00:00 7,6 7,6 9 5 SE 1034,5 1,0 0 0,0
23.02.2019 08:00:00 7,2 7,2 2 1 ESE 1034,6 0,1 0 0,0
23.02.2019 07:00:00 7,1 7,1 8 4 E 1034,0 0,1 0 0,0
23.02.2019 06:00:00 6,9 6,9 9 5 E 1033,9 0,1 0 0,0
23.02.2019 05:00:00 7,0 6,8 8 4 ENE 1033,7 0,1 0 0,0
23.02.2019 04:00:00 6,9 6,7 9 5 E 1033,7 1,5 0 0,0
23.02.2019 03:00:00 6,9 6,7 9 5 ENE 1034,1 0,3 0 0,0
23.02.2019 02:00:00 6,5 6,2 9 5 E 1034,5 0,6 0 0,0
23.02.2019 01:00:00 6,4 5,7 9 5 E 1034,7 3,4 0 0,0
23.02.2019 00:00:00 6,8 5,4 9 5 E 1034,7 5 - 0,0
22.02.2019 23:00:00 7,4 5,5 8 4 ENE 1035,0 7 0 0,0
22.02.2019 22:00:00 8,7 6,6 9 5 E 1035,3 8 0 0,0
22.02.2019 21:00:00 9,7 6,6 8 4 E 1035,1 10 0 0,0
22.02.2019 20:00:00 11,2 6,5 9 5 SE 1035,0 19 0 0,0
22.02.2019 19:00:00 12,0 5,8 11 6 SE 1034,7 25 0 0,0
22.02.2019 18:00:00 12,7 5,0 9 5 SE 1034,6 10 0 0,0
22.02.2019 17:00:00 14,0 4,5 11 6 SE 1034,5 10 36 0,0
22.02.2019 16:00:00 15,1 7,0 9 5 - 1034,4 10 60 0,0
22.02.2019 15:00:00 14,3 7,5 9 5 ESE 1034,9 10 60 0,0
22.02.2019 14:00:00 13,4 7,3 4 2 - 1035,6 10 60 0,0
22.02.2019 13:00:00 12,3 6,5 8 4 SSE 1035,6 10 60 0,0
22.02.2019 12:00:00 9,9 6,6 9 5 WSW 1036,0 8 60 0,0
22.02.2019 11:00:00 8,8 7,4 9 5 SE 1035,7 7 18 0,0
22.02.2019 10:00:00 6,7 6,6 4 2 NW 1036,1 4,2 0 0,0
22.02.2019 09:00:00 6,3 6,3 4 2 - 1035,8 0,9 0 0,0
22.02.2019 08:00:00 6,1 6,1 5 3 - 1034,9 0,2 0 0,0
22.02.2019 07:00:00 6,4 6,4 8 4 SSE 1034,1 0,2 0 0,0
22.02.2019 06:00:00 6,5 6,4 5 3 S 1034,0 0,2 0 0,0
22.02.2019 05:00:00 6,6 6,5 8 4 SW 1033,8 0,3 0 0,0
22.02.2019 04:00:00 6,7 6,5 5 3 - 1033,2 0,6 0 0,0
22.02.2019 03:00:00 7,0 6,8 9 5 W 1033,2 0,7 0 0,0
22.02.2019 02:00:00 7,2 6,9 8 4 WSW 1032,8 1,8 0 0,0
22.02.2019 01:00:00 7,4 7,1 11 6 SW 1032,6 2,2 0 0,0
22.02.2019 00:00:00 7,2 6,8 9 5 SW 1032,2 1,9 - 0,0
21.02.2019 23:00:00 7,8 6,8 9 5 SSW 1031,8 4,3 0 0,0
21.02.2019 22:00:00 8,4 7,0 9 5 SW 1031,2 8 0 0,0
21.02.2019 21:00:00 9,5 7,7 15 8 SW 1030,8 8 0 0,0
21.02.2019 20:00:00 9,9 7,7 13 7 SSW 1030,0 12 0 0,0
21.02.2019 19:00:00 11,1 8,4 13 7 SSW 1029,6 10 0 0,0
21.02.2019 18:00:00 12,8 8,8 15 8 SW 1028,6 10 0 0,0
21.02.2019 17:00:00 13,8 8,2 15 8 SW 1027,9 10 54 0,0
21.02.2019 16:00:00 14,8 8,3 13 7 SW 1027,2 25 60 0,0
21.02.2019 15:00:00 14,8 8,1 16 9 WSW 1026,9 10 60 0,0
21.02.2019 14:00:00 14,9 8,7 18 10 SW 1026,6 23 60 0,0
21.02.2019 13:00:00 14,2 8,7 16 9 SW 1026,7 10 60 0,0
21.02.2019 12:00:00 13,3 8,4 18 10 WSW 1026,8 10 36 0,0
21.02.2019 11:00:00 11,0 8,1 16 9 WSW 1026,5 17 0 0,0
21.02.2019 10:00:00 10,5 8,4 18 10 WSW 1025,7 10 0 0,0
21.02.2019 09:00:00 9,7 8,0 18 10 WSW 1025,5 10 0 0,0
21.02.2019 08:00:00 9,4 7,9 16 9 WSW 1024,9 10 0 0,0
21.02.2019 07:00:00 9,1 7,6 15 8 SW 1023,9 10 0 0,0
21.02.2019 06:00:00 8,5 6,8 11 6 SSW 1023,5 10 0 0,0
21.02.2019 05:00:00 8,1 6,8 11 6 SW 1023,1 10 0 0,0
21.02.2019 04:00:00 7,7 6,3 9 5 SSE 1022,8 10 0 0,0
21.02.2019 03:00:00 7,7 6,1 11 6 S 1023,2 9 0 0,0
21.02.2019 02:00:00 7,3 6,3 8 4 S 1023,3 10 0 0,0
21.02.2019 01:00:00 6,6 5,3 8 4 SW 1023,4 10 0 0,0
21.02.2019 00:00:00 6,7 5,0 8 4 SSW 1022,8 10 - 0,0
20.02.2019 23:00:00 7,8 6,1 11 6 SSW 1022,5 10 0 0,0
20.02.2019 22:00:00 7,2 5,4 11 6 SSW 1022,1 10 0 0,0
20.02.2019 21:00:00 8,0 5,9 11 6 SSW 1022,0 18 0 0,0
20.02.2019 20:00:00 8,5 5,8 15 8 SSW 1021,8 19 0 0,0
20.02.2019 19:00:00 9,4 5,8 16 9 SSW 1021,3 27 0 0,0
20.02.2019 18:00:00 10,1 5,9 21 11 SSW 1020,7 26 0 0,0
20.02.2019 17:00:00 11,0 5,4 22 12 SW 1020,5 29 24 0,0
20.02.2019 16:00:00 12,3 4,9 24 13 SW 1020,3 24 48 0,0
20.02.2019 15:00:00 12,6 5,4 22 12 SW 1020,2 40 18 -
20.02.2019 14:00:00 13,0 5,6 24 13 SW 1020,1 14 30 -
20.02.2019 13:00:00 11,7 5,7 24 13 SW 1020,4 10 24 0,0
20.02.2019 12:00:00 10,8 6,4 21 11 SW 1020,5 10 6 0,0
20.02.2019 11:00:00 10,7 6,7 22 12 SW 1020,5 10 24 0,0
20.02.2019 10:00:00 9,2 5,8 22 12 SW 1020,1 10 18 0,0
20.02.2019 09:00:00 8,6 6,1 13 7 SSW 1019,5 10 36 0,0
20.02.2019 08:00:00 7,2 5,6 13 7 S 1019,1 12 0 0,0
20.02.2019 07:00:00 7,3 5,8 15 8 SSW 1018,6 10 0 0,0
20.02.2019 06:00:00 7,0 5,8 11 6 SSW 1018,3 9 0 0,0
20.02.2019 05:00:00 6,9 5,6 15 8 SSW 1018,3 9 0 0,0
20.02.2019 04:00:00 6,9 5,4 15 8 SSW 1018,2 10 0 0,0
20.02.2019 03:00:00 6,8 5,2 16 9 SSW 1018,5 14 0 0,0
20.02.2019 02:00:00 6,5 4,8 15 8 S 1019,0 10 0 0,0
20.02.2019 01:00:00 6,8 4,8 13 7 S 1019,1 16 0 0,0
20.02.2019 00:00:00 7,2 5,2 16 9 SSW 1019,1 10 - 0,0
19.02.2019 23:00:00 7,2 5,1 16 9 SSW 1019,2 10 0 0,0
19.02.2019 22:00:00 7,9 5,3 16 9 SSW 1019,2 18 0 0,0
19.02.2019 21:00:00 7,8 5,2 18 10 SSW 1019,1 10 0 0,0
19.02.2019 20:00:00 8,2 5,2 18 10 SSW 1019,1 18 0 0,0
19.02.2019 19:00:00 8,4 4,5 22 12 SSW 1019,0 22 0 0,0
19.02.2019 18:00:00 8,9 3,8 16 9 SSW 1018,6 10 0 0,0
19.02.2019 17:00:00 9,6 4,0 18 10 SW 1018,6 29 6 0,0
19.02.2019 16:00:00 10,3 4,1 16 9 WSW 1018,7 35 0 0,0
19.02.2019 15:00:00 10,9 3,2 24 13 WSW 1018,9 10 30 0,0
19.02.2019 14:00:00 10,2 2,6 22 12 WSW 1019,2 10 30 0,0
19.02.2019 13:00:00 11,2 5,1 18 10 W 1019,4 10 42 0,0
19.02.2019 12:00:00 10,3 4,9 22 12 WSW 1019,8 10 36 0,0
19.02.2019 11:00:00 9,9 5,7 16 9 SW 1019,9 10 60 0,0
19.02.2019 10:00:00 8,5 5,6 11 6 SW 1019,8 10 60 0,0
19.02.2019 09:00:00 5,5 4,0 8 4 SSW 1019,5 10 48 0,0
19.02.2019 08:00:00 4,1 3,3 8 4 SW 1019,1 13 0 0,0
19.02.2019 07:00:00 3,7 3,1 13 7 SW 1018,3 14 0 0,0
19.02.2019 06:00:00 2,8 2,3 9 5 SW 1018,0 12 0 0,0
19.02.2019 05:00:00 3,5 2,8 2 1 SW 1017,8 10 0 0,0
19.02.2019 04:00:00 3,2 2,1 11 6 WSW 1017,6 10 0 0,0
19.02.2019 03:00:00 3,8 2,4 9 5 WSW 1017,4 10 0 0,2
19.02.2019 02:00:00 4,3 3,1 13 7 WSW 1017,3 10 0 0,0
19.02.2019 01:00:00 3,9 2,7 11 6 WSW 1017,0 10 0 0,0
19.02.2019 00:00:00 4,7 3,4 16 9 SW 1016,6 10 - 0,0
18.02.2019 23:00:00 5,2 3,9 16 9 SW 1016,5 10 0 0,0
18.02.2019 22:00:00 5,0 3,8 15 8 SW 1016,6 30 0 0,0
18.02.2019 21:00:00 5,5 4,2 16 9 SW 1016,2 10 0 0,0
18.02.2019 20:00:00 6,2 4,7 18 10 SW 1015,9 10 0 0,0
18.02.2019 19:00:00 6,9 5,3 16 9 SW 1015,4 10 0 0,0
18.02.2019 18:00:00 7,6 5,9 18 10 SW 1014,6 40 0 0,0
18.02.2019 17:00:00 8,7 6,3 18 10 SW 1014,3 35 0 0,0
18.02.2019 16:00:00 9,0 7,0 18 10 SW 1014,3 10 0 0,0
18.02.2019 15:00:00 8,9 7,3 16 9 SSW 1014,3 10 0 0,0
18.02.2019 14:00:00 8,6 7,3 21 11 S 1014,4 10 0 0,2
18.02.2019 13:00:00 8,3 6,9 18 10 S 1015,1 10 0 0,8
18.02.2019 12:00:00 9,0 7,0 18 10 SW 1015,3 18 0 0,8
18.02.2019 11:00:00 9,1 7,3 15 8 SW 1015,5 10 0 0,8
18.02.2019 10:00:00 9,5 8,0 11 6 S 1015,5 9 0 0,0
18.02.2019 09:00:00 9,0 7,6 15 8 S 1015,5 9 0 0,0
18.02.2019 08:00:00 8,6 7,5 16 9 S 1015,3 9 0 0,0
18.02.2019 07:00:00 8,1 7,1 13 7 S 1015,0 9 0 0,0
18.02.2019 06:00:00 8,1 7,0 13 7 SSW 1014,9 8 0 0,0
18.02.2019 05:00:00 7,7 6,9 11 6 S 1015,1 9 0 0,0
18.02.2019 04:00:00 8,0 6,8 9 5 S 1015,4 9 0 0,0
18.02.2019 03:00:00 8,0 7,0 11 6 SSW 1015,7 10 0 0,0
18.02.2019 02:00:00 8,4 6,8 11 6 SSW 1016,0 9 0 0,0
18.02.2019 01:00:00 9,5 7,3 13 7 SSW 1016,3 10 0 0,0
18.02.2019 00:00:00 9,9 7,8 11 6 SSW 1016,2 10 - 0,0
17.02.2019 23:00:00 10,1 8,1 13 7 SSW 1016,1 10 0 0,0
17.02.2019 22:00:00 10,2 8,4 13 7 SSW 1015,9 10 0 0,0

tt = Température de l'air
td = dewpoint
ff = Vitesse du vent
dd = Direction du vent
ppp = reduced air pressure
vv = visibility
sd = Ensoleillement
rr = Quantités de précipitations

stations d'obs. à proximité